Location: Knowlton
(51.2333°N, 1.2667°E)
Time: 04:54:17
(UTC+00:00)

Cosmos 909 Rocket - Pass Details

Date: 18 April 2021
Orbit: 989 x 2090 km, 65.9° (Epoch: 06 May)

Event Time Altitude Azimuth Distance (km) Brightness Sun altitude
Rises 21:04:42 0° 221° (SW) 3,757 7.0 -17.7°
Reaches altitude 10° 21:07:17 10° 222° (SW) 2,767 6.3 -17.9°
Maximum altitude 21:13:34 82° 310° (NW) 1,012 4.1 -18.6°
Drops below altitude 10° 21:20:11 10° 39° (NE) 2,909 6.6 -19.3°
Sets 21:22:58 0° 41° (NE) 3,964 7.3 -19.6°
